TimeCDT,TemperatureF,Dew PointF,Humidity,Sea Level PressureIn,VisibilityMPH,Wind Direction,Wind SpeedMPH,Gust SpeedMPH,PrecipitationIn,Events,Conditions,WindDirDegrees,DateUTC
12:15 AM,55.4,42.8,63,29.35,10.0,SE,4.6,-,N/A,,Clear,140,2012-10-17 05:15:00
12:35 AM,53.6,42.8,67,29.34,10.0,ESE,5.8,-,N/A,,Clear,120,2012-10-17 05:35:00
12:56 AM,55.4,44.6,67,29.32,10.0,ESE,9.2,-,N/A,,Clear,110,2012-10-17 05:56:00
1:15 AM,55.4,44.6,67,29.32,10.0,ESE,8.1,-,N/A,,Clear,120,2012-10-17 06:15:00
1:35 AM,55.4,44.6,67,29.32,10.0,SSE,6.9,-,N/A,,Clear,150,2012-10-17 06:35:00
1:55 AM,53.6,44.6,72,29.32,10.0,SE,6.9,-,N/A,,Clear,130,2012-10-17 06:55:00
2:15 AM,53.6,44.6,72,29.31,10.0,ESE,4.6,-,N/A,,Clear,120,2012-10-17 07:15:00
2:35 AM,55.4,44.6,67,29.30,10.0,ESE,5.8,-,N/A,,Clear,120,2012-10-17 07:35:00
2:55 AM,55.4,44.6,67,29.30,10.0,SE,5.8,-,N/A,,Scattered Clouds,140,2012-10-17 07:55:00
3:15 AM,55.4,44.6,67,29.27,10.0,East,8.1,-,N/A,,Mostly Cloudy,100,2012-10-17 08:15:00
3:35 AM,55.4,44.6,67,29.25,10.0,ESE,8.1,-,N/A,,Overcast,110,2012-10-17 08:35:00
3:56 AM,55.4,44.6,67,29.23,10.0,East,9.2,-,N/A,,Mostly Cloudy,100,2012-10-17 08:56:00
4:15 AM,55.4,44.6,67,29.22,10.0,East,5.8,-,N/A,,Mostly Cloudy,90,2012-10-17 09:15:00
4:35 AM,55.4,46.4,72,29.20,10.0,East,6.9,-,N/A,,Overcast,90,2012-10-17 09:35:00
4:55 AM,57.2,46.4,67,29.20,10.0,East,6.9,-,N/A,,Mostly Cloudy,80,2012-10-17 09:55:00
5:15 AM,55.4,46.4,72,29.19,10.0,East,9.2,-,N/A,,Mostly Cloudy,80,2012-10-17 10:15:00
5:36 AM,55.4,46.4,72,29.17,10.0,East,9.2,-,N/A,,Light Drizzle,90,2012-10-17 10:36:00
5:55 AM,57.2,46.4,67,29.15,10.0,East,10.4,-,N/A,,Mostly Cloudy,100,2012-10-17 10:55:00
6:15 AM,57.2,46.4,67,29.14,10.0,East,12.7,-,N/A,,Scattered Clouds,100,2012-10-17 11:15:00
6:36 AM,57.2,46.4,67,29.13,10.0,ESE,13.8,-,N/A,,Scattered Clouds,120,2012-10-17 11:36:00
6:55 AM,57.2,46.4,67,29.12,10.0,ESE,11.5,-,N/A,,Mostly Cloudy,120,2012-10-17 11:55:00
7:15 AM,57.2,46.4,67,29.10,10.0,ESE,13.8,-,N/A,Rain,Light Rain,120,2012-10-17 12:15:00
7:36 AM,57.2,44.6,63,29.10,10.0,SE,11.5,-,N/A,,Scattered Clouds,130,2012-10-17 12:36:00
7:55 AM,57.2,44.6,63,29.11,10.0,SSE,8.1,-,N/A,,Clear,150,2012-10-17 12:55:00
8:15 AM,57.2,44.6,63,29.10,10.0,SE,4.6,-,N/A,,Clear,140,2012-10-17 13:15:00
8:36 AM,57.2,44.6,63,29.10,10.0,Calm,Calm,-,N/A,,Clear,0,2012-10-17 13:36:00
8:55 AM,57.2,46.4,67,29.10,10.0,West,11.5,-,N/A,,Clear,280,2012-10-17 13:55:00
9:15 AM,57.2,46.4,67,29.11,10.0,WNW,12.7,-,N/A,,Clear,290,2012-10-17 14:15:00
9:36 AM,57.2,48.2,72,29.11,10.0,West,21.9,-,N/A,,Scattered Clouds,280,2012-10-17 14:36:00
9:55 AM,57.2,50.0,77,29.12,7.0,West,24.2,29.9,N/A,,Mostly Cloudy,280,2012-10-17 14:55:00
10:15 AM,55.4,50.0,82,29.15,2.5,West,25.3,33.4,N/A,,Drizzle,280,2012-10-17 15:15:00
10:36 AM,53.6,50.0,88,29.17,2.5,West,24.2,29.9,N/A,,Light Drizzle,280,2012-10-17 15:36:00
10:55 AM,53.6,48.2,82,29.18,10.0,West,28.8,34.5,N/A,,Overcast,280,2012-10-17 15:55:00
11:15 AM,53.6,48.2,82,29.20,10.0,West,24.2,34.5,N/A,,Overcast,280,2012-10-17 16:15:00
11:36 AM,53.6,46.4,77,29.21,10.0,West,24.2,34.5,N/A,,Overcast,280,2012-10-17 16:36:00
11:55 AM,53.6,46.4,77,29.22,10.0,West,16.1,-,N/A,,Overcast,270,2012-10-17 16:55:00
12:15 PM,53.6,46.4,77,29.22,10.0,West,18.4,24.2,N/A,,Overcast,270,2012-10-17 17:15:00
12:36 PM,53.6,44.6,72,29.24,10.0,West,23.0,32.2,N/A,,Overcast,260,2012-10-17 17:36:00
12:55 PM,53.6,44.6,72,29.23,10.0,West,21.9,26.5,N/A,,Scattered Clouds,260,2012-10-17 17:55:00
1:15 PM,53.6,42.8,67,29.23,10.0,West,21.9,32.2,N/A,,Scattered Clouds,270,2012-10-17 18:15:00
1:36 PM,55.4,42.8,63,29.23,10.0,West,20.7,28.8,N/A,,Mostly Cloudy,270,2012-10-17 18:36:00
1:55 PM,55.4,42.8,63,29.23,10.0,West,18.4,23.0,N/A,,Overcast,260,2012-10-17 18:55:00
2:15 PM,55.4,42.8,63,29.23,10.0,West,17.3,23.0,N/A,,Overcast,270,2012-10-17 19:15:00
2:34 PM,55.4,42.8,63,29.23,10.0,West,21.9,-,N/A,,Overcast,260,2012-10-17 19:34:00
2:55 PM,57.2,41.0,55,29.23,10.0,West,18.4,27.6,N/A,,Overcast,270,2012-10-17 19:55:00
3:15 PM,57.2,42.8,59,29.24,10.0,West,15.0,23.0,N/A,,Mostly Cloudy,270,2012-10-17 20:15:00
3:35 PM,57.2,42.8,59,29.24,10.0,West,15.0,-,N/A,,Mostly Cloudy,260,2012-10-17 20:35:00
3:55 PM,55.4,44.6,67,29.25,10.0,West,21.9,28.8,N/A,,Overcast,260,2012-10-17 20:55:00
4:15 PM,55.4,44.6,67,29.25,10.0,West,21.9,31.1,N/A,,Overcast,280,2012-10-17 21:15:00
4:35 PM,53.6,44.6,72,29.25,7.0,West,20.7,28.8,N/A,,Overcast,280,2012-10-17 21:35:00
4:55 PM,51.8,44.6,76,29.27,7.0,West,21.9,-,N/A,,Overcast,270,2012-10-17 21:55:00
5:15 PM,51.8,41.0,67,29.28,10.0,WNW,23.0,31.1,N/A,,Overcast,290,2012-10-17 22:15:00
5:35 PM,51.8,41.0,67,29.28,10.0,West,17.3,24.2,N/A,,Overcast,270,2012-10-17 22:35:00
5:55 PM,50.0,39.2,66,29.29,10.0,West,21.9,27.6,N/A,,Overcast,270,2012-10-17 22:55:00
6:15 PM,50.0,39.2,66,29.30,10.0,West,15.0,20.7,N/A,,Overcast,280,2012-10-17 23:15:00
6:35 PM,50.0,39.2,66,29.31,10.0,West,16.1,21.9,N/A,,Overcast,280,2012-10-17 23:35:00
6:55 PM,50.0,39.2,66,29.31,10.0,West,19.6,-,N/A,,Overcast,280,2012-10-17 23:55:00
7:15 PM,48.2,39.2,71,29.32,10.0,West,16.1,21.9,N/A,,Overcast,280,2012-10-18 00:15:00
7:35 PM,48.2,39.2,71,29.33,10.0,WNW,15.0,21.9,N/A,,Overcast,290,2012-10-18 00:35:00
7:55 PM,48.2,39.2,71,29.33,10.0,West,17.3,-,N/A,,Overcast,280,2012-10-18 00:55:00
8:15 PM,46.4,41.0,81,29.33,5.0,WNW,20.7,26.5,N/A,Rain,Light Rain,290,2012-10-18 01:15:00
8:35 PM,46.4,41.0,81,29.33,7.0,WNW,13.8,-,N/A,,Overcast,290,2012-10-18 01:35:00
8:55 PM,46.4,42.8,87,29.33,10.0,West,15.0,18.4,N/A,,Light Drizzle,280,2012-10-18 01:55:00
9:16 PM,46.4,42.8,87,29.33,10.0,West,13.8,20.7,N/A,Rain,Rain,270,2012-10-18 02:16:00
9:35 PM,44.6,42.8,93,29.33,7.0,West,15.0,-,N/A,,Drizzle,270,2012-10-18 02:35:00
9:55 PM,44.6,42.8,93,29.32,10.0,West,15.0,-,0.01,Rain,Light Rain,270,2012-10-18 02:55:00
10:16 PM,44.6,42.8,93,29.31,10.0,West,16.1,-,N/A,,Overcast,280,2012-10-18 03:16:00
10:35 PM,44.6,41.0,87,29.31,10.0,West,12.7,-,N/A,,Overcast,280,2012-10-18 03:35:00
10:55 PM,44.6,41.0,87,29.30,10.0,West,17.3,23.0,N/A,,Overcast,280,2012-10-18 03:55:00
11:16 PM,44.6,41.0,87,29.29,10.0,West,15.0,-,N/A,,Overcast,280,2012-10-18 04:16:00
11:35 PM,44.6,41.0,87,29.29,10.0,West,18.4,23.0,N/A,,Overcast,280,2012-10-18 04:35:00
11:55 PM,44.6,41.0,87,29.29,10.0,West,15.0,-,N/A,,Overcast,280,2012-10-18 04:55:00